Regional Weather Roundup
Issued by NWS

Home | Current Version | Previous Version | Graphics & Text | Print | Product List | Glossary Off
Versions: 1 2 3 4 5 6 7 8 9 10 11 12 13 14 15 16 17 18 19 20 21 22 23 24 25 26 27 28 29 30 31 32 33 34 35 36 37 38 39 40 41 42 43 44 45 46 47 48 49 50

000
ASUS43 KMKX 110559
RWRWI

WISCONSIN REGIONAL WEATHER ROUNDUP
NATIONAL WEATHER SERVICE MILWAUKEE/SULLIVAN WI
1200 AM CST MON DEC 11 2017

NOTE: "FAIR" INDICATES FEW OR NO CLOUDS BELOW 12,000 FEET WITH NO
SIGNIFICANT WEATHER AND/OR OBSTRUCTIONS TO VISIBILITY.

WIZ001-002-006>008-014>016-023>028-110700-
NORTHWEST WISCONSIN

CITY           SKY/WX    TMP DP  RH WIND       PRES   REMARKS
SUPERIOR ARPT  PTCLDY    13  10  87 CALM      29.96F
ASHLAND        CLOUDY    11   6  81 CALM      29.97F
6HR MIN TEMP:   6; 6HR MAX TEMP:  11;

HAYWARD        CLOUDY    11   7  84 CALM      29.93F
6HR MIN TEMP:   8; 6HR MAX TEMP:  16;

SIREN          CLOUDY    18  15  87 S5        29.94F WCI  11
CUMBERLAND     CLOUDY    12  10  92 CALM      29.93F
RICE LAKE      CLOUDY    15  13  94 CALM      29.97F
CHETEK           N/A     13  10  91 MISG      29.96F
LADYSMITH      CLOUDY    14  12  91 CALM      29.97F
EAU CLAIRE     CLOUDY    20  17  88 CALM      29.97F
MENOMONIE      CLOUDY    19  17  91 CALM      29.97F
NEW RICHMOND   CLOUDY    22  20  95 SE6       29.95F WCI  14
OSCEOLA        CLOUDY    23  21  91 S6        29.97F WCI  16
$$

WIZ003>005-009-010-017-018-110700-
NORTH CENTRAL WISCONSIN

CITY           SKY/WX    TMP DP  RH WIND       PRES   REMARKS
MANITOWISH WTR CLOUDY     5   4  94 CALM      29.92F
ARBOR VITAE    CLOUDY    11   9  89 CALM      29.93F
WOODRUFF       CLOUDY    11   9  89 CALM      29.93F
RHINELANDER    CLOUDY     8   5  87 CALM      29.94F
6HR MIN TEMP:   6; 6HR MAX TEMP:  18; 6HR PCP: TRACE;

EAGLE RIVER    FLURRIES  15  10  81 CALM      29.95S
LAND O LAKES   FLURRIES  15  11  85 CALM      29.95F
PHILLIPS       CLOUDY   N/A N/A N/A CALM      29.94F
TOMAHAWK       CLOUDY     6   3  89 CALM      29.96F
MEDFORD        CLOUDY    11   8  89 S5        29.96S WCI   3
MERRILL        CLOUDY    11   8  88 CALM      29.98F
$$

WIZ029-030-035-036-043>047-110700-
CENTRAL WISCONSIN

CITY           SKY/WX    TMP DP  RH WIND       PRES   REMARKS
WAUSAU         CLOUDY    18  12  77 S3        29.98F
6HR MIN TEMP:  18; 6HR MAX TEMP:  22;

MOSINEE        CLOUDY    18  14  86 CALM      30.00S
MARSHFIELD     CLOUDY    18  13  80 CALM      29.97F
6HR MIN TEMP:  16; 6HR MAX TEMP:  22;

STEVENS POINT  CLOUDY    17  14  88 CALM      30.01S
WAUPACA        CLOUDY    25  16  68 CALM      30.03S
WAUTOMA        CLOUDY    16  12  84 CALM      30.03F
6HR MIN TEMP:  16; 6HR MAX TEMP:  25;

WISC RAPIDS    CLOUDY    16  12  84 CALM      30.02S
6HR MIN TEMP:  15; 6HR MAX TEMP:  24;

CAMP DOUGLAS   CLOUDY    22  18  86 CALM      30.01F
6HR MIN TEMP:  22; 6HR MAX TEMP:  26;

$$

WIZ011>013-019>022-031-037>040-048>050-110700-
NORTHEAST WISCONSIN

CITY           SKY/WX    TMP DP  RH WIND       PRES   REMARKS
ANTIGO         CLOUDY    17  12  80 CALM      29.97S
SHAWANO        CLOUDY    23  16  74 CALM      30.03R
OCONTO         CLOUDY    11   6  81 CALM      30.04S
STURGEON BAY   PTCLDY    15   8  73 N5        30.04S WCI   8
6HR MIN TEMP:  15; 6HR MAX TEMP:  23; 6HR PCP: TRACE;

GREEN BAY      CLOUDY    22  14  71 NE5       30.04R WCI  16
6HR MIN TEMP:  20; 6HR MAX TEMP:  26;

MANITOWOC      CLOUDY    15  11  83 CALM      30.05S
6HR MIN TEMP:  15; 6HR MAX TEMP:  25;

APPLETON       CLOUDY    23  12  63 CALM      30.01S
CLINTONVILLE   CLOUDY    23  16  74 CALM      30.03S
OSHKOSH        CLOUDY    24  17  74 CALM      30.02F
6HR MIN TEMP:  24; 6HR MAX TEMP:  26;

$$

WIZ032>034-041-042-053>061-110700-
SOUTHWEST WISCONSIN

CITY           SKY/WX    TMP DP  RH WIND       PRES   REMARKS
LA CROSSE      CLOUDY    27  20  75 S6        30.01F WCI  20
6HR MIN TEMP:  27; 6HR MAX TEMP:  29;

SPARTA         CLOUDY    21  19  94 CALM      30.03S
VIROQUA        CLOUDY    24  20  86 CALM      30.00S
BOSCOBEL       CLOUDY    23  18  81 CALM      30.05F
6HR MIN TEMP:  22; 6HR MAX TEMP:  29;

PRAIRIE DU CHI CLOUDY    23  19  86 CALM      30.05S
PLATTEVILLE    CLOUDY    19  18  96 SE7       30.03F WCI  10
$$

WIZ056-057-062-063-064-067-068-110700-
SOUTH CENTRAL WISCONSIN

CITY           SKY/WX    TMP DP  RH WIND       PRES   REMARKS
REEDSBURG      CLOUDY    24  17  76 SW3       30.03F
BARABOO/DELLS  CLOUDY    24  17  75 CALM      30.02F
LONE ROCK      PTCLDY    20  18  92 NE3       30.04F
6HR MIN TEMP:  19; 6HR MAX TEMP:  28;

MINERAL POINT  CLOUDY    27  23  86 CALM      30.02F
MADISON        CLOUDY    24  18  77 CALM      30.03F
6HR MIN TEMP:  24; 6HR MAX TEMP:  27;

MIDDLETON      PTCLDY    21  17  85 CALM      30.04F
WATERTOWN      CLOUDY    24  16  73 CALM      30.03F
MONROE         CLOUDY    23  19  86 CALM      30.03F
JANESVILLE     CLOUDY    25  19  80 CALM      30.05F
$$

WIZ051-052-058>065-066-070>072-110700-
SOUTHEAST WISCONSIN

CITY           SKY/WX    TMP DP  RH WIND       PRES   REMARKS
MILWAUKEE      MOCLDY    27  16  63 W3        30.04F
6HR MIN TEMP:  27; 6HR MAX TEMP:  28;

WAUKESHA       CLOUDY    23  14  68 W3        30.05F
MILWAUKEE/TIMM CLOUDY    25  12  58 NW3       30.05F
RACINE         CLEAR     25  15  66 CALM      30.07F
6HR MIN TEMP:  25; 6HR MAX TEMP:  28;

BURLINGTON     CLOUDY    32  29  88 CALM      30.05S
KENOSHA        CLOUDY    25  17  72 W3        30.05F
6HR MIN TEMP:  25; 6HR MAX TEMP:  28;

FOND DU LAC    CLOUDY    25  14  63 W3        30.03F
6HR MIN TEMP:  25; 6HR MAX TEMP:  26; 6HR PCP: TRACE;

SHEBOYGAN      CLOUDY    23  19  85 CALM      30.03S
6HR MIN TEMP:  23; 6HR MAX TEMP:  25;

WEST BEND      CLOUDY    25  18  74 CALM      30.03S
JUNEAU         CLOUDY    24  16  70 CALM      30.04F
$$

LSZ147-162-110700-
LAKE SUPERIOR

STATION/POSITION TIME  TEMP    WIND        PRES    WAVE
                       AIR SEA DIR/SP/G            HT/PER
                 (UTC) (F)     (DEG/KT/KT) (MB)    (FT/S)
DEVILS ISLAND    0500   22     160/  5/  6 1015.8F
SAXON HARBOR     0530   14                 1014.6F
$$

LMZ867-665-643>646-110700-
LAKE MICHIGAN

STATION/POSITION TIME  TEMP    WIND        PRES    WAVE
                       AIR SEA DIR/SP/G            HT/PER
                 (UTC) (F)     (DEG/KT/KT) (MB)    (FT/S)
NORTHPORT PIER   0540   19     290/  9/ 15 1016.9S
KEWAUNEE LAKESHO 0530   15     310/  3/  4 1016.6R
SHEBOYGAN LAKESH 0500   26     300/  4/  5 1018.3F
PORT WASHINGTON  0540   27     280/  1/  4 1018.3F
MILWAUKEE LAKESH 0530   27     300/  6/  7   N/A
KENOSHA   LAKESH 0500   27     330/  7/  8 1018.3
$$

TC  - TEMPERATURE IN CELSIUS
VSB - VISIBILITY IN STATUTE MILES
WCI - WIND CHILL INDEX
HX  - HEAT INDEX




USA.gov is the U.S. government's official web portal to all federal, state and local government web resources and services.